TimeEDT,TemperatureF,Dew PointF,Humidity,Sea Level PressureIn,VisibilityMPH,Wind Direction,Wind SpeedMPH,Gust SpeedMPH,PrecipitationIn,Events,Conditions,WindDirDegrees,DateUTC
12:15 AM,62.6,55.4,77,30.21,10.0,Calm,Calm,-,N/A,,Clear,0,2012-10-12 04:15:00
12:35 AM,60.8,55.4,82,30.20,10.0,North,3.5,-,N/A,,Clear,360,2012-10-12 04:35:00
12:55 AM,60.8,55.4,82,30.20,10.0,North,-9999.0,-,N/A,,Clear,0,2012-10-12 04:55:00
1:15 AM,62.6,55.4,77,30.20,10.0,North,-9999.0,-,N/A,,Clear,0,2012-10-12 05:15:00
1:35 AM,59.0,55.4,88,30.19,10.0,North,3.5,-,N/A,,Clear,10,2012-10-12 05:35:00
1:55 AM,60.8,55.4,82,30.18,10.0,Calm,Calm,-,N/A,,Clear,0,2012-10-12 05:55:00
2:15 AM,60.8,55.4,82,30.18,10.0,Calm,Calm,-,N/A,,Clear,0,2012-10-12 06:15:00
2:35 AM,60.8,55.4,82,30.18,10.0,Calm,Calm,-,N/A,,Clear,0,2012-10-12 06:35:00
2:55 AM,59.0,55.4,88,30.17,10.0,NNE,3.5,-,N/A,,Clear,30,2012-10-12 06:55:00
3:15 AM,59.0,55.4,88,30.17,10.0,North,3.5,-,N/A,,Clear,10,2012-10-12 07:15:00
3:35 AM,59.0,55.4,88,30.16,10.0,NNE,3.5,-,N/A,,Clear,30,2012-10-12 07:35:00
3:55 AM,60.8,55.4,82,30.16,10.0,North,3.5,-,N/A,,Clear,10,2012-10-12 07:55:00
4:15 AM,60.8,55.4,82,30.16,10.0,North,-9999.0,-,N/A,,Clear,0,2012-10-12 08:15:00
4:35 AM,55.4,55.4,100,30.16,9.0,Calm,Calm,-,N/A,,Clear,0,2012-10-12 08:35:00
4:55 AM,62.6,55.4,77,30.16,7.0,Calm,Calm,-,N/A,,Clear,0,2012-10-12 08:55:00
5:15 AM,62.6,53.6,72,30.16,8.0,Calm,Calm,-,N/A,,Clear,0,2012-10-12 09:15:00
5:35 AM,55.4,55.4,100,30.17,7.0,Calm,Calm,-,N/A,,Clear,0,2012-10-12 09:35:00
5:55 AM,59.0,53.6,82,30.17,5.0,Calm,Calm,-,N/A,,Clear,0,2012-10-12 09:55:00
6:15 AM,62.6,53.6,72,30.17,4.0,Calm,Calm,-,N/A,,Clear,0,2012-10-12 10:15:00
6:50 AM,57.2,55.4,94,30.18,8.0,NNE,3.5,-,N/A,,Clear,20,2012-10-12 10:50:00
8:50 AM,68.0,60.8,78,30.22,10.0,NNE,3.5,-,N/A,,Clear,30,2012-10-12 12:50:00
9:50 AM,73.4,62.6,69,30.23,10.0,NNE,5.8,-,N/A,,Clear,20,2012-10-12 13:50:00
10:50 AM,77.0,60.8,57,30.24,10.0,NNE,9.2,-,N/A,,Clear,20,2012-10-12 14:50:00
12:50 PM,82.4,57.2,42,30.21,10.0,NE,6.9,-,N/A,,Clear,50,2012-10-12 16:50:00
1:50 PM,82.4,57.2,42,30.18,10.0,North,10.4,-,N/A,,Clear,360,2012-10-12 17:50:00
3:50 PM,84.2,57.2,40,30.14,10.0,ENE,8.1,-,N/A,,Clear,60,2012-10-12 19:50:00
4:50 PM,82.4,59.0,45,30.14,10.0,NNE,10.4,-,N/A,,Partly Cloudy,20,2012-10-12 20:50:00
5:50 PM,82.4,59.0,45,30.15,10.0,NNE,8.1,-,N/A,,Partly Cloudy,20,2012-10-12 21:50:00
6:50 PM,78.8,60.8,54,30.15,10.0,NE,5.8,-,N/A,,Clear,40,2012-10-12 22:50:00
7:55 PM,73.4,60.8,65,30.16,10.0,Calm,Calm,-,N/A,,Clear,0,2012-10-12 23:55:00
8:15 PM,71.6,60.8,69,30.17,10.0,NNE,3.5,-,N/A,,Clear,20,2012-10-13 00:15:00
8:35 PM,71.6,60.8,69,30.18,10.0,Calm,Calm,-,N/A,,Clear,0,2012-10-13 00:35:00
8:55 PM,69.8,60.8,73,30.18,10.0,Calm,Calm,-,N/A,,Clear,0,2012-10-13 00:55:00
9:15 PM,69.8,60.8,73,30.19,10.0,Calm,Calm,-,N/A,,Clear,0,2012-10-13 01:15:00
9:35 PM,69.8,60.8,73,30.20,10.0,Calm,Calm,-,N/A,,Clear,0,2012-10-13 01:35:00
10:15 PM,69.8,60.8,73,30.20,10.0,Calm,Calm,-,N/A,,Clear,0,2012-10-13 02:15:00
10:35 PM,66.2,60.8,83,30.20,10.0,Calm,Calm,-,N/A,,Clear,0,2012-10-13 02:35:00
10:55 PM,66.2,60.8,83,30.21,10.0,Calm,Calm,-,N/A,,Clear,0,2012-10-13 02:55:00
11:15 PM,68.0,59.0,73,30.21,10.0,Calm,Calm,-,N/A,,Clear,0,2012-10-13 03:15:00
11:55 PM,64.4,60.8,88,30.21,10.0,Calm,Calm,-,N/A,,Clear,0,2012-10-13 03:55:00